EWG29H LEMG-EDDL

Flight info

Callsign EWG29H
Flight time N/A
Altitude 34000
Route BLN N865 VTB DCT RBO DCT OSTIX DCT GASMO/N0451F360 DCT DGO L176 LUSEM DCT LULUT DCT ADABI DCT BOKNO DCT DIBES DCT VIQAQ DCT TSU DCT OQQAL DCT RANUX/N0450F370 DCT VALEK DCT LUTAX DCT DIK/N0393F230 N853 ARCKY T853 NVO T857 BIKMU BIKMU1A
Aircraft A320/M-SDE3FGHIRWY/LB1

Departure

Time 2026-05-06 16:52
Airport Málaga-Costa del Sol Airport (LEMG)

Arrival

Time N/A
Airport Düsseldorf Airport (EDDL)
Time Latitude Longitude Altitude Speed Heading
2026-05-06 16:14 36.67685 -4.49506 42 ft 0 kts 42°
2026-05-06 16:41 36.67670 -4.49527 66 ft 4 kts 75°
2026-05-06 16:41 36.67673 -4.49555 41 ft 4 kts 129°
2026-05-06 16:41 36.67680 -4.49565 39 ft 1 kts 132°
2026-05-06 16:46 36.67676 -4.49562 41 ft 3 kts 148°
2026-05-06 16:46 36.67641 -4.49577 42 ft 6 kts 230°
2026-05-06 16:47 36.67620 -4.49607 42 ft 4 kts 226°
2026-05-06 16:47 36.67600 -4.49631 42 ft 8 kts 220°
2026-05-06 16:47 36.67566 -4.49695 43 ft 8 kts 279°
2026-05-06 16:47 36.67585 -4.49742 41 ft 5 kts 310°
2026-05-06 16:48 36.67624 -4.49800 43 ft 20 kts 311°
2026-05-06 16:48 36.67746 -4.49970 43 ft 31 kts 311°
2026-05-06 16:48 36.67893 -4.50177 44 ft 31 kts 312°
2026-05-06 16:48 36.67988 -4.50310 44 ft 31 kts 311°
2026-05-06 16:49 36.68131 -4.50511 44 ft 29 kts 311°
2026-05-06 16:49 36.68265 -4.50698 45 ft 29 kts 311°
2026-05-06 16:49 36.68380 -4.50859 49 ft 24 kts 311°
2026-05-06 16:49 36.68477 -4.50993 52 ft 18 kts 312°
2026-05-06 16:50 36.68567 -4.51069 51 ft 15 kts 311°
2026-05-06 16:50 36.68608 -4.51204 51 ft 11 kts 239°
2026-05-06 16:50 36.68580 -4.51236 54 ft 6 kts 219°
2026-05-06 16:50 36.68538 -4.51263 54 ft 6 kts 188°
2026-05-06 16:51 36.68511 -4.51259 58 ft 7 kts 165°
2026-05-06 16:51 36.68404 -4.51191 57 ft 19 kts 137°
2026-05-06 16:51 36.68312 -4.51062 57 ft 24 kts 132°
2026-05-06 16:51 36.68054 -4.50702 53 ft 89 kts 131°
2026-05-06 16:52 36.67515 -4.49948 52 ft 142 kts 131°
2026-05-06 16:52 36.66781 -4.48943 388 ft 151 kts 133°
2026-05-06 16:52 36.66095 -4.47992 1062 ft 148 kts 132°
2026-05-06 16:52 36.65428 -4.47003 1380 ft 157 kts 131°
2026-05-06 16:53 36.64677 -4.45922 1616 ft 171 kts 134°
2026-05-06 16:53 36.63790 -4.44693 1637 ft 206 kts 134°
2026-05-06 16:53 36.62783 -4.43307 2028 ft 223 kts 134°
2026-05-06 16:53 36.61736 -4.41859 2713 ft 227 kts 132°
2026-05-06 16:54 36.60687 -4.40375 3410 ft 230 kts 127°
2026-05-06 16:54 36.59907 -4.38643 4119 ft 231 kts 109°
2026-05-06 16:54 36.59517 -4.36695 4824 ft 233 kts 101°
2026-05-06 16:54 36.59189 -4.34710 5520 ft 236 kts 101°
2026-05-06 16:55 36.58859 -4.32723 6193 ft 239 kts 101°
2026-05-06 16:55 36.58546 -4.30648 6817 ft 243 kts 93°
2026-05-06 16:55 36.58674 -4.28544 7423 ft 246 kts 74°
2026-05-06 16:55 36.59387 -4.26556 7874 ft 259 kts 54°
2026-05-06 16:56 36.60506 -4.24803 8463 ft 265 kts 51°
2026-05-06 16:56 36.61667 -4.22994 9098 ft 270 kts 51°
2026-05-06 16:56 36.63025 -4.21341 9716 ft 275 kts 35°
2026-05-06 16:56 36.64767 -4.20140 10032 ft 293 kts 19°
2026-05-06 16:57 36.66746 -4.19324 10192 ft 315 kts 17°
2026-05-06 16:57 36.68905 -4.18452 10432 ft 334 kts 17°
2026-05-06 16:57 36.71136 -4.17550 10972 ft 341 kts 17°
2026-05-06 16:57 36.73413 -4.16646 11597 ft 345 kts 16°
2026-05-06 16:58 36.75719 -4.15753 12228 ft 350 kts 16°
2026-05-06 16:58 36.78060 -4.14853 12840 ft 354 kts 16°
2026-05-06 16:58 36.80428 -4.13939 13451 ft 358 kts 16°